[[{"header":{"parameterUnit":"m.s-1","parameterCategory":1,"la1":30.2991,"la2":30.254,"lo1":-89.0895,"lo2":-89.0444,"dy":0.0017,"dx":0.0017,"nx":28,"ny":28,"refTime":"2023-09-07T21:00:00:Z","depth":0,"parameterNumber":2,"parameterNumberName":"U-component_of_WINDS"},"data":[0,0,0,0,0,0,0,0,0,0,0,0,0,0,0,0,0,0,0,0,0,0,0,0,0,0,0,0,0,0,0,0,0,0,0,0,0,0,0,0,0,0,0,0,0,0,0,0,0,0,0,0,0,0,0,0,0,0,-2.3795,-2.3795,0,-2.3829,-2.383,-2.383,-2.377,-2.3768,-2.3766,-2.3764,-2.3799,-2.3802,-2.3805,0,0,0,0,0,0,0,0,0,0,0,0,0,-2.3676,-2.3679,-2.3795,-2.3795,-2.3795,-2.3829,-2.383,-2.383,-2.377,-2.3768,-2.3765,-2.3763,-2.3798,-2.3802,-2.3805,0,0,0,0,0,0,0,0,0,0,0,0,0,-2.3721,-2.3679,-2.3795,-2.377,-2.3768,-2.3829,-2.383,-2.383,-2.3771,-2.3768,-2.3765,-2.3762,-2.3797,-2.3801,-2.3806,-2.3893,0,0,-2.3819,-2.382,0,0,0,0,0,0,0,0,-2.3718,-2.3725,-2.3773,-2.3771,-2.3769,-2.3792,-2.3801,-2.3851,-2.3772,-2.377,-2.3764,-2.376,-2.3799,-2.3803,-2.3816,-2.3895,-2.3896,-2.3819,-2.3822,-2.3823,-2.3825,0,0,0,0,0,0,0,-2.3715,-2.3723,-2.3808,-2.3774,-2.3772,-2.3757,-2.376,-2.381,-2.3801,-2.377,-2.3765,-2.377,-2.3798,-2.3813,-2.3817,-2.3897,-2.3819,-2.3823,-2.3825,-2.3827,-2.4047,-2.405,0,0,0,0,0,0,-2.3715,-2.3721,-2.3807,-2.3809,-2.3736,-2.3761,-2.3765,-2.3788,-2.38,-2.3799,-2.3773,-2.3767,-2.3807,-2.3812,-2.3818,-2.3919,-2.3823,-2.3827,-2.383,-2.4044,-2.4047,-2.4051,0,0,0,0,0,0,-2.3713,-2.3724,-2.3806,-2.3764,-2.3773,-2.3767,-2.3793,-2.379,-2.3805,-2.3803,-2.3801,-2.3789,-2.3805,-2.3812,-2.3874,-2.392,-2.3829,-2.3833,-2.404,-2.4045,-2.4049,-2.4124,0,0,0,0,0,0,-2.371,-2.3723,-2.3756,-2.3765,-2.3776,-2.3862,-2.3796,-2.3793,-2.3812,-2.3805,-2.3818,-2.3817,-2.3803,-2.3868,-2.3879,-2.3924,-2.3836,-2.4035,-2.4042,-2.4048,-2.4117,-2.4131,-2.4142,0,0,0,0,0,-2.3706,-2.3776,-2.3758,-2.3769,-2.3817,-2.3865,-2.3871,-2.3853,-2.3816,-2.3849,-2.3848,-2.3817,-2.3914,-2.3875,-2.3886,-2.3934,-2.4032,-2.404,-2.4047,-2.4112,-2.4128,-2.4142,0,0,0,0,0,0,-2.3772,-2.3777,-2.3757,-2.3832,-2.3849,-2.3854,-2.3895,-2.3871,-2.3898,-2.389,-2.3867,-2.387,-2.3937,-2.3942,-2.3899,-2.4018,-2.3967,-2.3977,-2.4012,-2.4028,-2.404,-2.4036,-2.384,0,0,0,0,0,-2.3796,-2.3834,-2.3836,-2.3902,-2.3912,-2.3902,-2.3922,-2.3907,-2.3923,-2.393,-2.3933,-2.395,-2.3983,-2.4006,-2.4038,-2.4119,-2.412,-2.4157,-2.4169,-2.418,-2.4188,-2.4229,-2.4245,-2.4075,-2.4075,-2.4075,0,0,-2.3844,-2.3852,-2.3877,-2.3916,-2.3926,-2.3966,-2.3908,-2.3953,-2.3982,-2.3936,-2.3995,-2.3998,-2.4015,-2.4087,-2.4119,-2.4093,-2.4235,-2.4189,-2.4197,-2.42,-2.4239,-2.4255,-2.4269,-2.408,-2.4079,-2.4079,0,0,-2.3952,-2.3963,-2.4018,-2.403,-2.4048,-2.4041,-2.4055,-2.4065,-2.4065,-2.4124,-2.409,-2.4124,-2.4184,-2.4197,-2.4211,-2.4326,-2.4297,-2.4337,-2.4401,-2.4442,-2.4455,-2.4467,-2.4506,-2.452,-2.4345,-2.4346,-2.4346,0,-2.401,-2.4069,-2.405,-2.4097,-2.4114,-2.4075,-2.4131,-2.4144,-2.4171,-2.4183,-2.4155,-2.4228,-2.4237,-2.431,-2.4338,-2.4352,-2.4366,-2.4334,-2.4455,-2.4467,-2.4477,-2.4514,-2.4529,-2.435,-2.435,-2.4349,-2.4349,0,-2.4138,-2.418,-2.4223,-2.4249,-2.4272,-2.4323,-2.4311,-2.4337,-2.4321,-2.4317,-2.4377,-2.4387,-2.4418,-2.4436,-2.442,-2.4507,-2.449,-2.4459,-2.4406,-2.4498,-2.4532,-2.4546,-2.4357,-2.4355,-2.4354,-2.4352,0,0,-2.4287,-2.4303,-2.4319,-2.433,-2.4347,-2.4378,-2.4428,-2.4459,-2.4481,-2.4501,-2.4541,-2.4593,-2.4564,-2.458,-2.4566,-2.4603,-2.469,-2.4567,-2.4567,-2.4587,-2.4785,-2.4806,-2.4823,-2.4673,-2.4675,-2.4678,-2.4782,0,-2.4393,-2.4478,-2.4462,-2.4545,-2.4582,-2.4546,-2.4589,-2.4604,-2.4603,-2.4634,-2.4633,-2.4669,-2.4629,-2.4638,-2.4673,-2.4672,-2.4729,-2.4665,-2.4708,-2.471,-2.4702,-2.4841,-2.4864,-2.4962,-2.4796,-2.4798,-2.48,0,-2.4527,-2.4552,-2.4638,-2.4648,-2.4663,-2.4702,-2.4729,-2.4761,-2.4777,-2.4773,-2.4792,-2.4771,-2.482,-2.4769,-2.4835,-2.4792,-2.4809,-2.4812,-2.4815,-2.4816,-2.4759,-2.4844,-2.4993,-2.5007,-2.4821,-2.4819,-2.4818,0,-2.4623,-2.4679,-2.4738,-2.4749,-2.4763,-2.4791,-2.4798,-2.4811,-2.4831,-2.4856,-2.4868,-2.4898,-2.4914,-2.4937,-2.4925,-2.4889,-2.4993,-2.4941,-2.499,-2.499,-2.5011,-2.5009,-2.5163,-2.5027,-2.5027,-2.5026,-2.5026,0,-2.4741,-2.4795,-2.4781,-2.4817,-2.4876,-2.4858,-2.4917,-2.492,-2.4932,-2.4967,-2.494,-2.4973,-2.4956,-2.4989,-2.498,-2.5035,-2.5043,-2.504,-2.5037,-2.5041,-2.5041,-2.505,-2.5042,-2.503,-2.5029,-2.5029,-2.5028,0,-2.4858,-2.4851,-2.4912,-2.4921,-2.4925,-2.4968,-2.4975,-2.5008,-2.5005,-2.505,-2.506,-2.5055,-2.5092,-2.5083,-2.5123,-2.5117,-2.5186,-2.5175,-2.518,-2.5176,-2.5225,-2.5219,-2.5388,-2.5408,-2.5261,-2.5263,-2.5264,0,-2.4932,-2.4972,-2.4986,-2.5008,-2.5017,-2.5053,-2.5073,-2.5058,-2.508,-2.5102,-2.5132,-2.5167,-2.5193,-2.5253,-2.5253,-2.5284,-2.5271,-2.5329,-2.5276,-2.5279,-2.5269,-2.5266,-2.5269,-2.5338,-2.534,-2.5341,-2.5342,0,-2.5064,-2.5059,-2.5089,-2.5118,-2.5143,-2.5165,-2.5185,-2.5204,-2.5191,-2.5217,-2.5254,-2.5275,-2.5316,-2.535,-2.5378,-2.5385,-2.5361,-2.5359,-2.5372,-2.5375,-2.5375,-2.5373,-2.5206,-2.5355,-2.5353,-2.5353,-2.5352,-2.5351,-2.516,-2.5193,-2.5208,-2.5242,-2.5256,-2.5275,-2.5306,-2.5308,-2.5339,-2.5371,-2.5361,-2.5403,-2.5418,-2.5453,-2.5464,-2.5497,-2.5475,-2.5493,-2.5498,-2.5502,-2.5506,-2.5373,-2.5502,-2.5502,-2.5501,-2.5501,-2.5501,0,-2.5287,-2.5295,-2.5328,-2.5356,-2.5383,-2.536,-2.5381,-2.5404,-2.5442,-2.5459,-2.5485,-2.5528,-2.5561,-2.5564,-2.5595,-2.562,-2.561,-2.5629,-2.5625,-2.5627,-2.5525,-2.551,-2.5636,-2.5636,-2.5636,-2.5636,-2.5636,-2.5636,-2.5357,-2.5412,-2.5409,-2.5471,-2.5478,-2.5519,-2.5533,-2.555,-2.5563,-2.5612,-2.564,-2.5642,-2.5653,-2.5685,-2.5714,-2.5714,-2.5725,-2.5748,-2.5743,-2.5648,-2.5634,-2.5621,-2.5607,-2.5751,-2.5751,-2.5842,-2.5842,-2.5843]},{"header":{"parameterUnit":"m.s-1","parameterCategory":1,"la1":30.2991,"la2":30.254,"lo1":-89.0895,"lo2":-89.0444,"dy":0.0017,"dx":0.0017,"nx":28,"ny":28,"refTime":"2023-09-07T21:00:00:Z","depth":0,"parameterNumber":3,"parameterNumberName":"V-component_of_WINDS"},"data":[0,0,0,0,0,0,0,0,0,0,0,0,0,0,0,0,0,0,0,0,0,0,0,0,0,0,0,0,0,0,0,0,0,0,0,0,0,0,0,0,0,0,0,0,0,0,0,0,0,0,0,0,0,0,0,0,0,0,-2.4272,-2.4272,0,-2.431,-2.431,-2.431,-2.4305,-2.4305,-2.4304,-2.4303,-2.4339,-2.4341,-2.4342,0,0,0,0,0,0,0,0,0,0,0,0,0,-2.4191,-2.4193,-2.4272,-2.4272,-2.4273,-2.4309,-2.431,-2.431,-2.4305,-2.4305,-2.4304,-2.4303,-2.4339,-2.4341,-2.4342,0,0,0,0,0,0,0,0,0,0,0,0,0,-2.4227,-2.4193,-2.4272,-2.4275,-2.4275,-2.4309,-2.431,-2.4311,-2.4305,-2.4305,-2.4304,-2.4303,-2.4338,-2.434,-2.4343,-2.4375,0,0,-2.435,-2.4351,0,0,0,0,0,0,0,0,-2.4225,-2.423,-2.4274,-2.4274,-2.4275,-2.4302,-2.4295,-2.4332,-2.4306,-2.4294,-2.4303,-2.4302,-2.4327,-2.433,-2.434,-2.4377,-2.4379,-2.435,-2.4351,-2.4352,-2.4353,0,0,0,0,0,0,0,-2.4223,-2.4229,-2.4287,-2.4274,-2.4275,-2.4273,-2.4277,-2.4302,-2.4315,-2.4295,-2.4295,-2.4299,-2.4328,-2.4337,-2.434,-2.4379,-2.435,-2.4352,-2.4353,-2.4354,-2.4444,-2.4445,0,0,0,0,0,0,-2.422,-2.4227,-2.4285,-2.4288,-2.4248,-2.4275,-2.428,-2.4294,-2.4315,-2.4317,-2.43,-2.4299,-2.4334,-2.4338,-2.4342,-2.438,-2.4352,-2.4354,-2.4356,-2.4443,-2.4444,-2.4445,0,0,0,0,0,0,-2.4218,-2.4225,-2.4284,-2.4257,-2.4264,-2.4277,-2.4294,-2.4295,-2.4305,-2.4319,-2.4321,-2.4308,-2.4333,-2.4338,-2.4367,-2.4381,-2.4355,-2.4358,-2.4442,-2.4443,-2.4444,-2.4458,0,0,0,0,0,0,-2.4216,-2.4225,-2.4238,-2.4257,-2.4266,-2.431,-2.4295,-2.4297,-2.4309,-2.4308,-2.4327,-2.4329,-2.4333,-2.4363,-2.4369,-2.4384,-2.4359,-2.444,-2.4442,-2.4444,-2.4456,-2.446,-2.4463,0,0,0,0,0,-2.4213,-2.424,-2.4239,-2.4246,-2.4283,-2.431,-2.4315,-2.432,-2.4311,-2.4324,-2.4332,-2.4328,-2.4379,-2.4366,-2.4373,-2.4389,-2.4439,-2.4442,-2.4444,-2.4455,-2.4459,-2.4463,0,0,0,0,0,0,-2.4221,-2.4243,-2.4242,-2.4276,-2.4291,-2.431,-2.4326,-2.4325,-2.4342,-2.434,-2.4345,-2.4349,-2.4378,-2.4386,-2.4372,-2.4421,-2.4408,-2.4411,-2.4414,-2.4418,-2.4421,-2.4418,-2.4361,0,0,0,0,0,-2.4227,-2.4249,-2.4266,-2.4294,-2.4302,-2.4313,-2.4325,-2.4328,-2.4343,-2.435,-2.4361,-2.4375,-2.4394,-2.4407,-2.4425,-2.4458,-2.4461,-2.4472,-2.4475,-2.4478,-2.448,-2.4497,-2.4501,-2.4452,-2.4452,-2.4452,0,0,-2.4239,-2.4254,-2.4267,-2.4296,-2.4309,-2.433,-2.4318,-2.4341,-2.4356,-2.4353,-2.438,-2.4389,-2.4405,-2.4436,-2.445,-2.4444,-2.4494,-2.448,-2.4482,-2.4484,-2.4499,-2.4504,-2.4508,-2.4454,-2.4454,-2.4453,0,0,-2.4272,-2.4286,-2.4311,-2.4323,-2.4342,-2.4349,-2.4355,-2.4373,-2.4379,-2.4407,-2.4404,-2.4422,-2.4455,-2.4467,-2.4477,-2.4513,-2.451,-2.4519,-2.4536,-2.4552,-2.4555,-2.4559,-2.457,-2.4575,-2.4522,-2.4522,-2.4522,0,-2.4284,-2.4317,-2.4323,-2.4346,-2.4358,-2.4357,-2.4381,-2.4393,-2.4417,-2.4425,-2.4418,-2.4459,-2.447,-2.4502,-2.4511,-2.452,-2.4526,-2.4517,-2.4555,-2.4558,-2.4561,-2.4572,-2.4577,-2.4523,-2.4523,-2.4523,-2.4523,0,-2.433,-2.4353,-2.437,-2.4394,-2.4409,-2.4432,-2.444,-2.4454,-2.4455,-2.4462,-2.449,-2.4503,-2.4524,-2.4532,-2.4533,-2.4564,-2.456,-2.4554,-2.4541,-2.4567,-2.4577,-2.4582,-2.4524,-2.4524,-2.4524,-2.4524,0,0,-2.4369,-2.4396,-2.4402,-2.4412,-2.4433,-2.445,-2.4473,-2.4494,-2.4504,-2.4521,-2.4539,-2.4567,-2.4561,-2.4573,-2.4575,-2.459,-2.4616,-2.4582,-2.4582,-2.4586,-2.4649,-2.4653,-2.4657,-2.4614,-2.4615,-2.4616,-2.4647,0,-2.4403,-2.4444,-2.445,-2.4486,-2.4506,-2.4505,-2.4524,-2.4538,-2.4545,-2.4562,-2.457,-2.4589,-2.4581,-2.4588,-2.4602,-2.461,-2.4628,-2.4608,-2.4629,-2.463,-2.4624,-2.4663,-2.4667,-2.4696,-2.4652,-2.4652,-2.4653,0,-2.4448,-2.4466,-2.4504,-2.4521,-2.453,-2.4547,-2.4566,-2.4583,-2.4599,-2.4603,-2.4615,-2.4616,-2.4638,-2.4625,-2.4655,-2.464,-2.465,-2.4655,-2.4656,-2.4657,-2.4642,-2.4664,-2.4706,-2.471,-2.4659,-2.4659,-2.4658,0,-2.447,-2.4504,-2.4531,-2.454,-2.4561,-2.4573,-2.4582,-2.4597,-2.4609,-2.4625,-2.4633,-2.4651,-2.4661,-2.4675,-2.468,-2.467,-2.4709,-2.4696,-2.4711,-2.4711,-2.4719,-2.4718,-2.4761,-2.4727,-2.4727,-2.4727,-2.4726,0,-2.4506,-2.4529,-2.4541,-2.4558,-2.4583,-2.4589,-2.4614,-2.4622,-2.4635,-2.4652,-2.4652,-2.4668,-2.4674,-2.469,-2.4694,-2.4717,-2.4722,-2.4725,-2.4725,-2.4724,-2.4724,-2.4729,-2.4727,-2.4728,-2.4727,-2.4727,-2.4727,0,-2.4536,-2.4545,-2.4574,-2.4592,-2.4596,-2.4614,-2.4629,-2.4644,-2.4651,-2.4672,-2.4677,-2.4688,-2.4707,-2.4714,-2.4737,-2.4739,-2.4766,-2.4765,-2.4761,-2.476,-2.4775,-2.4773,-2.4822,-2.4828,-2.4791,-2.4791,-2.4792,0,-2.4558,-2.4575,-2.4595,-2.4607,-2.4617,-2.4636,-2.4648,-2.4654,-2.4667,-2.4685,-2.4698,-2.4717,-2.4733,-2.4763,-2.4772,-2.4789,-2.4788,-2.4805,-2.4791,-2.4789,-2.4787,-2.4785,-2.4786,-2.4807,-2.4807,-2.4807,-2.4808,0,-2.4595,-2.4599,-2.4617,-2.4637,-2.4651,-2.4667,-2.4682,-2.4691,-2.4699,-2.4713,-2.4733,-2.4745,-2.4769,-2.4787,-2.4805,-2.4813,-2.4811,-2.4812,-2.4816,-2.4815,-2.4811,-2.4812,-2.4766,-2.4811,-2.481,-2.481,-2.481,-2.481,-2.4621,-2.4636,-2.4652,-2.4672,-2.4684,-2.4698,-2.4713,-2.4722,-2.4739,-2.4759,-2.4761,-2.4782,-2.4796,-2.482,-2.4829,-2.4844,-2.484,-2.4846,-2.4847,-2.4849,-2.4849,-2.4809,-2.4848,-2.4848,-2.4848,-2.4848,-2.4848,0,-2.4657,-2.4668,-2.4686,-2.4707,-2.4722,-2.472,-2.4737,-2.4749,-2.4768,-2.4782,-2.4797,-2.4819,-2.4837,-2.4847,-2.4865,-2.4875,-2.4875,-2.488,-2.4878,-2.488,-2.4853,-2.4847,-2.488,-2.488,-2.488,-2.488,-2.488,-2.488,-2.4678,-2.4703,-2.4709,-2.4739,-2.4749,-2.4771,-2.478,-2.4792,-2.4803,-2.4828,-2.4843,-2.485,-2.4862,-2.488,-2.4896,-2.4898,-2.4904,-2.4909,-2.4911,-2.4885,-2.4882,-2.4879,-2.4873,-2.4911,-2.4911,-2.4936,-2.4937,-2.4937]}]]